This is the latest recevied weather packets stored in our database for station/object 9D9-WX. If no packets are shown the sender has not sent any weather packets the latest 10 day(s).
| Time | Temp. | Humidity | Pressure | Rain* | Wind** | Luminosity | Snow |
|---|---|---|---|---|---|---|---|
| 1777527908 | 5° C | 90% | 985.5 hPa | 0 mm | - | - | - |
| 1777527027 | 5° C | 91% | 985.7 hPa | 0 mm | - | - | - |
| 1777526108 | 5° C | 91% | 985.7 hPa | 0.25 mm | - | - | - |
| 1777525231 | 5° C | 91% | 985.7 hPa | 0.25 mm | - | - | - |
| 1777524309 | 5° C | 93% | 985.6 hPa | 0.25 mm | - | - | - |
| 1777523427 | 5.56° C | 91% | 985.9 hPa | 0.25 mm | - | - | - |
| 1777522508 | 5° C | 91% | 985.9 hPa | 0.25 mm | - | - | - |
| 1777521631 | 5.56° C | 91% | 985.9 hPa | 0.25 mm | - | - | - |
| 1777520708 | 5.56° C | 92% | 985.4 hPa | 0 mm | - | - | - |
| 1777519825 | 5.56° C | 90% | 985 hPa | 0 mm | - | - | - |
| 1777518908 | 6.11° C | 90% | 985 hPa | 0 mm | - | - | - |
| 1777518032 | 6.11° C | 90% | 985 hPa | 0 mm | - | - | - |
| 1777517108 | 6.11° C | 90% | 985.1 hPa | 0 mm | - | - | - |
| 1777516221 | 6.11° C | 88% | 985.9 hPa | 0 mm | - | - | - |
| 1777515308 | 6.67° C | 88% | 986 hPa | 0 mm | - | - | - |
| 1777514429 | 6.67° C | 88% | 986 hPa | 0 mm | - | - | - |
| 1777513508 | 6.67° C | 90% | 985 hPa | 0 mm | - | - | - |
| 1777512619 | 7.22° C | 90% | 985 hPa | 0 mm | - | - | - |
| 1777511708 | 6.67° C | 90% | 985 hPa | 0 mm | - | - | - |
| 1777510827 | 7.22° C | 90% | 985 hPa | 0 mm | - | - | - |
| 1777509908 | 7.22° C | 87% | 984.5 hPa | 0 mm | - | - | - |
| 1777509020 | 7.22° C | 90% | 985.1 hPa | 0 mm | - | - | - |
| 1777508109 | 7.22° C | 90% | 985.1 hPa | 0 mm | - | - | - |
| 1777507225 | 7.78° C | 90% | 985.1 hPa | 0 mm | - | - | - |
| 1777506308 | 7.78° C | 90% | 984.2 hPa | 0 mm | - | - | - |
* Rain latest hour (hover to see other rain measurements)
** Current wind speed in m/s (hover to see current wind gust speed)